[[{"header":{"parameterUnit":"m.s-1","parameterCategory":1,"la1":30.2991,"la2":30.254,"lo1":-89.0895,"lo2":-89.0444,"dy":0.0017,"dx":0.0017,"nx":28,"ny":28,"refTime":"2023-10-23T03:00:00:Z","depth":0,"parameterNumber":2,"parameterNumberName":"U-component_of_WINDS"},"data":[0,0,0,0,0,0,0,0,0,0,0,0,0,0,0,0,0,0,0,0,0,0,0,0,0,0,0,0,0,0,0,0,0,0,0,0,0,0,0,0,0,0,0,0,0,0,0,0,0,0,0,0,0,0,0,0,0,0,-6.0055,-6.0056,0,-6.0096,-6.0096,-6.0097,-5.9977,-5.9974,-5.997,-5.9966,-6.0009,-6.0014,-6.0018,0,0,0,0,0,0,0,0,0,0,0,0,0,-5.9878,-5.9882,-6.0055,-6.0056,-6.0056,-6.0096,-6.0096,-6.0097,-5.9978,-5.9973,-5.9969,-5.9965,-6.0008,-6.0013,-6.0019,0,0,0,0,0,0,0,0,0,0,0,0,0,-5.9941,-5.9883,-6.0055,-6.0002,-5.9997,-6.0096,-6.0097,-6.0097,-5.9979,-5.9973,-5.9968,-5.9963,-6.0006,-6.0013,-6.0019,-6.0172,0,0,-6.004,-6.0043,0,0,0,0,0,0,0,0,-5.9937,-5.9947,-6.0009,-6.0005,-6.0001,-6.0026,-6.0049,-6.0122,-5.998,-5.9986,-5.9966,-5.996,-6.0019,-6.0025,-6.0044,-6.0174,-6.0176,-6.0041,-6.0045,-6.0048,-6.005,0,0,0,0,0,0,0,-5.9933,-5.9945,-6.0071,-6.001,-6.0005,-5.9977,-5.998,-6.0063,-6.0033,-5.9985,-5.9976,-5.9983,-6.0016,-6.0038,-6.0045,-6.0176,-6.0041,-6.0047,-6.0051,-6.0054,-6.0436,-6.0442,0,0,0,0,0,0,-5.9935,-5.9942,-6.007,-6.0073,-5.9955,-5.9984,-5.9987,-6.0023,-6.0032,-6.0028,-5.9987,-5.9977,-6.0029,-6.0037,-6.0046,-6.0225,-6.0048,-6.0054,-6.0058,-6.043,-6.0437,-6.0444,0,0,0,0,0,0,-5.9932,-5.9948,-6.0068,-6.0005,-6.0018,-5.9993,-6.0035,-6.0027,-6.0049,-6.0034,-6.0028,-6.0015,-6.0025,-6.0036,-6.0142,-6.0225,-6.0057,-6.0064,-6.0423,-6.0432,-6.044,-6.0586,0,0,0,0,0,0,-5.9927,-5.9947,-6.0004,-6.0007,-6.0022,-6.0163,-6.004,-6.0032,-6.0061,-6.0048,-6.0058,-6.0055,-6.0022,-6.0132,-6.0149,-6.0232,-6.0069,-6.0415,-6.0427,-6.0438,-6.0574,-6.0599,-6.0621,0,0,0,0,0,-5.9921,-6.0043,-6.0007,-6.0023,-6.0092,-6.0168,-6.0177,-6.0136,-6.0068,-6.0125,-6.0116,-6.0054,-6.0214,-6.0144,-6.0162,-6.0248,-6.041,-6.0424,-6.0437,-6.0563,-6.0594,-6.062,0,0,0,0,0,0,-6.0049,-6.0042,-6.0002,-6.0129,-6.015,-6.0148,-6.0218,-6.017,-6.0211,-6.0196,-6.0145,-6.0148,-6.0264,-6.0267,-6.0189,-6.0397,-6.03,-6.0318,-6.0391,-6.042,-6.0443,-6.0439,-6.0075,0,0,0,0,0,-6.0092,-6.0154,-6.0145,-6.0257,-6.027,-6.0243,-6.0275,-6.0242,-6.0262,-6.027,-6.0268,-6.0291,-6.0346,-6.0384,-6.0434,-6.0575,-6.0576,-6.0643,-6.0667,-6.0686,-6.0701,-6.0778,-6.0808,-6.0488,-6.0488,-6.0488,0,0,-6.0181,-6.0185,-6.0227,-6.0283,-6.0295,-6.0362,-6.0251,-6.0325,-6.0374,-6.0281,-6.0381,-6.0382,-6.0403,-6.0528,-6.0583,-6.0534,-6.0791,-6.0703,-6.0719,-6.0723,-6.0795,-6.0825,-6.0852,-6.0498,-6.0496,-6.0494,0,0,-6.0377,-6.0386,-6.0481,-6.0497,-6.0518,-6.05,-6.0523,-6.053,-6.0526,-6.0626,-6.0559,-6.0617,-6.0713,-6.0732,-6.0754,-6.0963,-6.0907,-6.0981,-6.1102,-6.1177,-6.1203,-6.1225,-6.1299,-6.1326,-6.0996,-6.0997,-6.0997,0,-6.0484,-6.058,-6.0536,-6.0615,-6.0643,-6.0564,-6.0661,-6.0678,-6.0715,-6.0736,-6.0682,-6.0802,-6.0811,-6.094,-6.0991,-6.1012,-6.1038,-6.0977,-6.1203,-6.1224,-6.1244,-6.1314,-6.1342,-6.1005,-6.1004,-6.1004,-6.1003,0,-6.0712,-6.078,-6.0855,-6.0893,-6.0929,-6.1017,-6.0987,-6.103,-6.0996,-6.0984,-6.1088,-6.1097,-6.1148,-6.1177,-6.1144,-6.1302,-6.1271,-6.1211,-6.1112,-6.1284,-6.1349,-6.1376,-6.1018,-6.1015,-6.1012,-6.101,0,0,-6.0984,-6.1,-6.1028,-6.1045,-6.1065,-6.1117,-6.1204,-6.1254,-6.1291,-6.1321,-6.1392,-6.1478,-6.1422,-6.1448,-6.1417,-6.1484,-6.1649,-6.1415,-6.1414,-6.1457,-6.1825,-6.1869,-6.1901,-6.1614,-6.1619,-6.1623,-6.1823,0,-6.1177,-6.1322,-6.1287,-6.1432,-6.1495,-6.1424,-6.1499,-6.152,-6.1513,-6.1567,-6.1559,-6.1621,-6.1543,-6.1558,-6.1621,-6.1615,-6.1722,-6.1601,-6.1679,-6.1683,-6.1674,-6.1935,-6.1981,-6.2169,-6.1848,-6.1852,-6.1855,0,-6.1418,-6.1458,-6.161,-6.1621,-6.1647,-6.1715,-6.1759,-6.1812,-6.1836,-6.1826,-6.1858,-6.1815,-6.1901,-6.1805,-6.1924,-6.1843,-6.1874,-6.1877,-6.1883,-6.1886,-6.1778,-6.1944,-6.2228,-6.2256,-6.1895,-6.1892,-6.1889,0,-6.1601,-6.1693,-6.1796,-6.1813,-6.183,-6.1879,-6.1889,-6.1907,-6.1941,-6.1982,-6.2003,-6.2054,-6.2081,-6.2122,-6.2094,-6.2026,-6.2219,-6.2119,-6.2214,-6.2215,-6.2255,-6.2252,-6.2546,-6.2279,-6.2278,-6.2278,-6.2277,0,-6.1818,-6.1913,-6.1878,-6.1941,-6.2047,-6.2008,-6.2113,-6.2115,-6.2133,-6.2196,-6.2139,-6.22,-6.2161,-6.2219,-6.2199,-6.2302,-6.2315,-6.231,-6.2303,-6.2314,-6.2314,-6.2331,-6.2317,-6.2285,-6.2283,-6.2282,-6.2281,0,-6.2038,-6.2018,-6.2125,-6.2134,-6.2139,-6.2216,-6.2224,-6.2283,-6.2274,-6.2355,-6.2372,-6.2357,-6.2423,-6.2401,-6.2472,-6.2459,-6.2589,-6.2566,-6.2581,-6.2574,-6.2669,-6.266,-6.2982,-6.3023,-6.2732,-6.2734,-6.2737,0,-6.2176,-6.2248,-6.2265,-6.2303,-6.2317,-6.2379,-6.2414,-6.238,-6.2419,-6.2454,-6.251,-6.2571,-6.2618,-6.2727,-6.2724,-6.2779,-6.2755,-6.2865,-6.2763,-6.2773,-6.2756,-6.2751,-6.2759,-6.2884,-6.2888,-6.289,-6.2892,0,-6.2423,-6.2411,-6.2462,-6.2513,-6.2556,-6.2594,-6.2626,-6.2662,-6.263,-6.2677,-6.2744,-6.2781,-6.2855,-6.2916,-6.2967,-6.2978,-6.2931,-6.2926,-6.295,-6.296,-6.2965,-6.2963,-6.2634,-6.2917,-6.2915,-6.2913,-6.2912,-6.2911,-6.2605,-6.2666,-6.2689,-6.2749,-6.2771,-6.2804,-6.2861,-6.286,-6.2915,-6.2972,-6.295,-6.3027,-6.3053,-6.3116,-6.3135,-6.3196,-6.3153,-6.3189,-6.3198,-6.3207,-6.3219,-6.2958,-6.3205,-6.3204,-6.3204,-6.3203,-6.3202,0,-6.2848,-6.286,-6.2917,-6.2965,-6.3014,-6.2967,-6.3002,-6.3046,-6.3115,-6.3143,-6.3191,-6.327,-6.3331,-6.3334,-6.3392,-6.344,-6.342,-6.3456,-6.3451,-6.3455,-6.3253,-6.3226,-6.3472,-6.3472,-6.3472,-6.3471,-6.3471,-6.3471,-6.298,-6.3081,-6.3073,-6.3186,-6.3197,-6.3273,-6.3297,-6.3328,-6.335,-6.3441,-6.3491,-6.3493,-6.3512,-6.3571,-6.3626,-6.3626,-6.3649,-6.3693,-6.3685,-6.3496,-6.3469,-6.3443,-6.3417,-6.3699,-6.3699,-6.3881,-6.3882,-6.3884]},{"header":{"parameterUnit":"m.s-1","parameterCategory":1,"la1":30.2991,"la2":30.254,"lo1":-89.0895,"lo2":-89.0444,"dy":0.0017,"dx":0.0017,"nx":28,"ny":28,"refTime":"2023-10-23T03:00:00:Z","depth":0,"parameterNumber":3,"parameterNumberName":"V-component_of_WINDS"},"data":[0,0,0,0,0,0,0,0,0,0,0,0,0,0,0,0,0,0,0,0,0,0,0,0,0,0,0,0,0,0,0,0,0,0,0,0,0,0,0,0,0,0,0,0,0,0,0,0,0,0,0,0,0,0,0,0,0,0,2.8738,2.8738,0,2.8697,2.8697,2.8697,2.8636,2.8635,2.8634,2.8633,2.8588,2.8588,2.8588,0,0,0,0,0,0,0,0,0,0,0,0,0,2.8763,2.8763,2.8738,2.8738,2.8737,2.8698,2.8697,2.8696,2.8636,2.8635,2.8633,2.8632,2.8588,2.8588,2.8588,0,0,0,0,0,0,0,0,0,0,0,0,0,2.874,2.8763,2.8738,2.8702,2.8699,2.8698,2.8697,2.8696,2.8636,2.8634,2.8633,2.8631,2.8588,2.8588,2.8588,2.8618,0,0,2.8587,2.8587,0,0,0,0,0,0,0,0,2.8742,2.874,2.8708,2.8705,2.8701,2.867,2.8689,2.867,2.8636,2.866,2.8632,2.8631,2.8617,2.8614,2.861,2.8616,2.8614,2.8587,2.8587,2.8587,2.8586,0,0,0,0,0,0,0,2.8743,2.8741,2.8722,2.8708,2.8703,2.8688,2.8683,2.8685,2.8647,2.8658,2.8653,2.8649,2.8614,2.861,2.8608,2.8613,2.8587,2.8587,2.8586,2.8586,2.8645,2.8646,0,0,0,0,0,0,2.8751,2.8743,2.8723,2.8721,2.8718,2.8689,2.8683,2.8681,2.8647,2.8641,2.8651,2.8647,2.8611,2.8608,2.8606,2.8641,2.8587,2.8586,2.8586,2.8643,2.8645,2.8647,0,0,0,0,0,0,2.8751,2.8749,2.8725,2.8731,2.8726,2.869,2.8689,2.8682,2.8677,2.8642,2.8635,2.8653,2.861,2.8607,2.8616,2.8638,2.8586,2.8586,2.8641,2.8643,2.8646,2.8709,0,0,0,0,0,0,2.8752,2.875,2.8761,2.8731,2.8726,2.8736,2.869,2.8682,2.8677,2.8671,2.8643,2.8636,2.8608,2.8617,2.8616,2.8637,2.8586,2.8639,2.8642,2.8645,2.8705,2.8713,2.8721,0,0,0,0,0,2.8753,2.8779,2.8762,2.876,2.8739,2.8737,2.8734,2.8702,2.8679,2.869,2.8668,2.8637,2.8636,2.8618,2.8617,2.8638,2.8637,2.8641,2.8645,2.8701,2.8711,2.872,0,0,0,0,0,0,2.8811,2.8775,2.8755,2.8772,2.8758,2.8727,2.8739,2.8714,2.8706,2.87,2.866,2.8655,2.8669,2.8654,2.8635,2.8667,2.8632,2.8636,2.8675,2.8685,2.8693,2.8696,2.8585,0,0,0,0,0,2.8826,2.8828,2.8796,2.8814,2.8808,2.8775,2.8773,2.875,2.8734,2.8727,2.8706,2.8691,2.8687,2.8685,2.868,2.8703,2.8696,2.8717,2.8725,2.8731,2.8735,2.8748,2.8757,2.866,2.8659,2.8659,0,0,2.8856,2.8836,2.884,2.8825,2.8811,2.8814,2.8771,2.8775,2.8776,2.8727,2.8736,2.872,2.8701,2.8718,2.8724,2.8705,2.8761,2.8736,2.8742,2.8742,2.8752,2.8762,2.877,2.8662,2.8662,2.8661,0,0,2.8912,2.8898,2.8912,2.8901,2.8882,2.886,2.8864,2.8837,2.8825,2.8833,2.8797,2.8799,2.8793,2.8781,2.8775,2.8831,2.8803,2.883,2.8872,2.8884,2.8892,2.8899,2.8919,2.8927,2.8834,2.8834,2.8834,0,2.8952,2.8955,2.8922,2.893,2.8925,2.8883,2.8898,2.8888,2.8868,2.8865,2.8846,2.884,2.8823,2.8838,2.8852,2.8848,2.8851,2.8832,2.8894,2.89,2.8906,2.8925,2.8933,2.8838,2.8837,2.8837,2.8836,0,2.9005,2.9008,2.9022,2.9006,2.9003,2.9014,2.8983,2.8984,2.8962,2.8943,2.8952,2.8932,2.8923,2.8925,2.8903,2.8937,2.8927,2.8901,2.8866,2.8919,2.8937,2.8944,2.8843,2.8841,2.884,2.8839,0,0,2.9094,2.9062,2.9068,2.9061,2.9039,2.904,2.905,2.9043,2.9044,2.9033,2.904,2.9038,2.9016,2.9008,2.8985,2.8996,2.9044,2.8969,2.8968,2.8984,2.9081,2.9101,2.911,2.9026,2.9027,2.9028,2.9083,0,2.9146,2.9161,2.9134,2.9156,2.9159,2.9121,2.9129,2.9117,2.91,2.91,2.9081,2.9081,2.905,2.9046,2.9056,2.9036,2.9062,2.9031,2.9032,2.9032,2.9038,2.9119,2.9138,2.9192,2.909,2.9091,2.9092,0,2.9208,2.9202,2.9225,2.9203,2.9204,2.9212,2.9204,2.9205,2.9191,2.9178,2.9172,2.9145,2.9154,2.9121,2.9133,2.9112,2.9111,2.9102,2.9103,2.9101,2.9065,2.9119,2.9208,2.9216,2.9102,2.9101,2.9101,0,2.9272,2.9269,2.9282,2.9278,2.9253,2.926,2.925,2.9234,2.9233,2.9226,2.9224,2.9218,2.9215,2.9211,2.9184,2.9163,2.92,2.9164,2.919,2.9191,2.9198,2.9198,2.9288,2.9198,2.9198,2.9198,2.9198,0,2.9332,2.9348,2.9311,2.9319,2.9336,2.9305,2.9323,2.9309,2.9296,2.9301,2.9268,2.9273,2.9237,2.9239,2.9218,2.9232,2.9231,2.9221,2.9215,2.9223,2.9225,2.9222,2.9217,2.92,2.92,2.9199,2.9199,0,2.9405,2.9381,2.9394,2.9371,2.9365,2.9379,2.9359,2.9366,2.9348,2.9356,2.9356,2.9328,2.9329,2.9302,2.9297,2.9283,2.9306,2.9293,2.9311,2.9307,2.9334,2.9332,2.9424,2.9435,2.9339,2.934,2.9341,0,2.9445,2.9457,2.9436,2.9437,2.943,2.9433,2.9431,2.9402,2.9402,2.9388,2.9397,2.9396,2.9393,2.9397,2.9376,2.9372,2.9359,2.9392,2.9358,2.9368,2.936,2.936,2.9361,2.9399,2.94,2.9401,2.9402,0,2.9519,2.9508,2.9507,2.9504,2.9503,2.9499,2.9492,2.9495,2.9463,2.9465,2.9467,2.9465,2.9461,2.9461,2.9454,2.9443,2.9418,2.9413,2.9419,2.9427,2.9438,2.9433,2.933,2.9411,2.941,2.9409,2.9409,2.9408,2.9577,2.9586,2.9573,2.9575,2.9567,2.9562,2.9569,2.9553,2.9554,2.9549,2.9532,2.9537,2.9525,2.9513,2.9506,2.9509,2.9493,2.9501,2.9503,2.9505,2.9511,2.9438,2.9508,2.9508,2.9507,2.9507,2.9507,0,2.9649,2.964,2.9642,2.9635,2.9636,2.9614,2.9606,2.9609,2.9614,2.9605,2.9604,2.9606,2.9606,2.9587,2.9585,2.9591,2.958,2.9592,2.9591,2.9589,2.9525,2.9521,2.9602,2.9602,2.9601,2.9601,2.9601,2.9601,2.9687,2.9702,2.969,2.9701,2.9691,2.9697,2.9695,2.969,2.9683,2.9688,2.9689,2.9677,2.9664,2.9661,2.966,2.9655,2.9655,2.9672,2.9662,2.9603,2.9593,2.9585,2.958,2.9672,2.9672,2.9726,2.9726,2.9726]}]]